sat.trackr.live / text

‹ back to catalog

STARLINK-2034

NORAD 47352 · 2021-005D

PAYLOAD ACTIVE UNKNOWN

§ Identity

Operator
Country
US
Launch date
2021-01-20
Launch site
AFETR
Launch vehicle
Mass (kg)
RCS (m²)

Purposes: comms

External: N2YO · Heavens-Above · Gunter

§ Orbital elements

Epoch: 2026-05-25T03:11:58.560288Z

Period
94.01 min
Inclination
53.1597°
Eccentricity
0.0001295
Mean motion
15.31707364 rev/d
Perigee alt
469.8 km
Apogee alt
471.6 km
Semi-major
6,848.9 km
B*
1.2899e-4
RAAN
57.1849°
Arg perigee
84.9810°
Mean anomaly
275.1339°
Rev number
29,488

§ Raw data

STARLINK-20341 47352U 21005D   26145.13331667  .00003640  00000+0  12899-3 0  99912 47352  53.1597  57.1849 0001295  84.9810 275.1339 15.31707364294882

JSON: /api/v1/satellites/47352 · /tle

For live sub-satellite position, see the globe view (requires WebGL).

§ Visibility from observer

Set your observer location to see the next 7 days of passes ≥ 10°. The values pass through the URL so the page stays shareable.

No JS? Fill the form by hand. The geolocation button needs JavaScript.